ONEWEB-0088 (45457 NORAD) Tracking and Keplerian Element Data

This shows tracking and keplerian element data for the satellite.

Feedback or suggestion? Click here.




ElementValue
Catalog45457
NameONEWEB-0088
Epoch Orbit1622
Epoch Day190.25001157
Epoch Year2020
RAAN103.493
Inclination87.571
Eccentricity0.0022047
Argument of Perigee271.3508
Mean Anonmoly5.475
Mean Motion14.90176229
Decay Rate0.00013977
L11 45457U 20020AK 20190.25001157 .00013977 00000-0 14333-2 0 9995
L22 45457 87.5710 103.4930 0022047 271.3508 5.4750 14.90176229 16229

Live tracking and technical data element details for ONEWEB-0088 (NORAD 45457). ONEWEB-0088 can be tracked NOW for your location showing map with azimuth and elevation plus other details from your city location.

Track the satellite on the map from your city or location and see movement details for azimuth, elevation, latitude, longitude, range, height, and movement on the map or in text.







IsCatalogInMostPopularTable: catalog: 45457, numindb: 28
Update: records affected: 1



GetName: 45457 ONEWEB-0088

Hit Count: updated at: Fri, 10 Jul 2020 03:19:36 GMT